Location: West Cummington
(42.4920°N, 72.9680°W)
Time: 00:02:19
(UTC-05:00)

ATLAS 2AS CENTAUR R/B - Visible Passes

Search period start: 24 January 2017 00:00
Search period end: 03 February 2017 00:00
Orbit: 904 x 1308 km, 63.7° (Epoch: 22 January)

Date Brightness Start Highest point End Pass type
(mag) Time Alt. Az. Time Alt. Az. Time Alt. Az.
24 Jan 5.1 02:35:41 17° NNE 02:35:41 17° NNE 02:39:27 10° NE visible
24 Jan 4.2 04:23:08 20° NNW 04:28:03 37° NE 04:35:07 10° ESE visible
24 Jan 3.1 06:11:40 10° NW 06:19:38 66° WSW 06:27:01 10° SSE visible
25 Jan 5.5 01:52:34 11° NE 01:52:34 11° NE 01:53:15 10° NE visible
25 Jan 4.5 03:40:01 24° N 03:42:40 28° NNE 03:49:14 10° E visible
25 Jan 3.0 05:27:29 13° NW 05:34:53 86° NE 05:42:25 10° SE visible
26 Jan 4.8 02:56:59 23° NNE 02:57:08 23° NNE 03:03:07 10° ENE visible
26 Jan 3.4 04:44:27 22° NNW 04:49:56 61° NE 04:57:26 10° SE visible
26 Jan 3.7 06:33:35 10° NW 06:40:32 34° WSW 06:47:02 10° S visible
26 Jan 4.8 18:38:04 10° SE 18:38:07 10° SE 18:38:07 10° SE visible
26 Jan 4.6 20:23:49 10° SSW 20:25:40 19° SSW 20:25:40 19° SSW visible
27 Jan 5.2 02:14:02 16° NE 02:14:02 16° NE 02:16:50 10° ENE visible
27 Jan 3.9 04:01:30 31° N 04:04:49 44° NE 04:12:05 10° ESE visible
27 Jan 3.2 05:48:58 13° NW 05:56:02 52° WSW 06:03:11 10° S visible
27 Jan 3.8 19:39:33 10° S 19:43:37 33° SSE 19:43:37 33° SSE visible
27 Jan 5.2 21:30:25 10° WSW 21:31:10 13° WSW 21:31:10 13° WSW visible
28 Jan 4.3 03:18:40 32° NNE 03:19:32 33° NE 03:26:24 10° E visible
28 Jan 2.9 05:06:08 24° NW 05:11:23 77° WSW 05:18:51 10° SSE visible
28 Jan 3.7 18:55:49 10° SSE 19:01:36 31° ESE 19:01:36 31° ESE visible
28 Jan 4.1 20:45:08 10° SW 20:49:09 34° WSW 20:49:09 34° WSW visible
29 Jan 4.8 02:35:56 24° NE 02:35:56 24° NE 02:40:25 10° E visible
29 Jan 3.1 04:23:26 41° NNW 04:26:32 75° NE 04:34:05 10° SE visible
29 Jan 3.9 06:10:55 11° WNW 06:16:47 26° WSW 06:22:39 10° SSW visible
29 Jan 4.1 18:12:50 10° SSE 18:17:56 20° ESE 18:19:35 19° E visible
29 Jan 3.0 20:00:12 10° SSW 20:07:06 76° SSW 20:07:06 76° SSW visible
29 Jan 5.2 21:53:11 10° W 21:54:39 15° W 21:54:39 15° W visible
30 Jan 5.4 01:53:21 12° ENE 01:53:21 12° ENE 01:54:13 10° ENE visible
30 Jan 3.5 03:40:51 52° NNE 03:41:31 53° NE 03:48:57 10° ESE visible
30 Jan 3.4 05:28:21 24° WNW 05:32:23 40° WSW 05:39:11 10° S visible
30 Jan 4.6 17:31:48 10° ESE 17:33:46 11° E 17:35:44 10° E visible
30 Jan 3.0 19:15:41 10° SSW 19:23:06 62° ESE 19:25:01 49° ENE visible
30 Jan 4.3 21:07:22 10° WSW 21:12:33 34° WNW 21:12:33 34° WNW visible
31 Jan 4.3 02:58:25 34° ENE 02:58:25 34° ENE 03:03:28 10° ESE visible
31 Jan 2.9 04:45:55 49° WNW 04:47:49 62° WSW 04:55:08 10° SSE visible
31 Jan 4.6 06:35:25 10° W 06:37:08 11° W 06:38:50 10° WSW visible
31 Jan 3.4 18:31:37 10° S 18:38:32 41° ESE 18:42:51 23° ENE visible
31 Jan 3.6 20:21:53 10° WSW 20:29:24 54° NW 20:30:22 51° NNW visible
31 Jan 5.4 22:16:38 10° WNW 22:17:53 13° WNW 22:17:53 13° WNW visible
01 Feb 5.2 02:16:06 16° E 02:16:06 16° E 02:17:39 10° E visible
01 Feb 2.9 04:03:38 80° SSE 04:03:38 80° SSE 04:10:37 10° SSE visible
01 Feb 4.1 05:51:09 18° W 05:52:58 19° WSW 05:57:57 10° SSW visible
01 Feb 3.9 17:48:08 10° SSE 17:54:07 26° ESE 18:00:25 10° NE visible
01 Feb 3.1 19:36:44 10° SW 19:44:23 75° NW 19:48:03 36° NNE visible
01 Feb 4.7 21:30:25 10° W 21:35:34 25° NW 21:35:34 25° NW visible
02 Feb 4.0 03:21:26 37° ESE 03:21:26 37° ESE 03:25:42 10° SE visible
02 Feb 3.6 05:08:58 31° WSW 05:08:58 31° WSW 05:14:59 10° SSW visible
02 Feb 2.9 18:51:58 10° SSW 18:59:32 77° ESE 19:05:37 20° NE visible
02 Feb 4.3 20:44:26 10° W 20:51:24 33° NW 20:53:08 31° NNW visible
02 Feb 5.6 22:40:20 10° NW 22:40:37 11° NW 22:40:37 11° NW visible
